DECAYED

STARLINK-30170, 57431 (Decayed)

Orbit data source: Space-Track

STARLINK-30170, 57431 was a payload satellite owned by SpaceX/Seattle (US) in LEO that was launched on Mon, 24 Jul 2023 UTC via an FALCON 9 launch vehicle from the Air Force Eastern Test Range (AFETR). Payload-class satellites include a variety of spacecraft equipped with specific instruments for various scientific and technological missions. These include communications satellites like Starlink; space stations such as the ISS; scientific satellites like the Hubble; Earth observation satellites from companies like Planet Labs, Umbra, and HawkEye 360; GPS; miniature CubeSats for education and research; and military/defense satellites.

Not visible in the next 10 days
Identifier
57431, 2023-105B
Orbit
Decayed
Country
Flag of USUS
Related business
Manufacturer
SpaceX/Seattle
Mission
Decayed Commercial Communications
Bus & Motor
STARLINK V2M, Unknown motor
Mass
730 kg wet, ~700 kg dry
Launch date (UTC)
2023-07-24 (3 years ago)
Launch vehicle
FALCON 9
Launch site
Air Force Eastern Test Range (AFETR)
Object type
Payload
Rocket body
Debris
Shape & HBR
Box + 2 Pan, 17.7 m
Radar Cross Section
33.884 m², Large (>1 m²)

Expand to show TLE details & history
Last TLE update: 1 year ago

TLE from 1 year ago
0 STARLINK-30170
1 57431U 23105B   25158.80309935  .17577662  92010-5  58328-2 0  9995
2 57431  42.9732 276.7778 0016043 339.8321 158.6081 16.24472118104668
Epoch: 2025-06-07T19:16Z
TLE epoch observation values (Epoch: 2025-06-07T19:16:27.783Z)
Latitude
26.94955°
Longitude
-121.63667°
Altitude
217.353 km
Speed
7.775 km/s
True Right ascension
04h 15m 40s
True Declination
26° 47' 58"
Sunlit
Object was in daylight at epoch
Visualization orbit readout
Latitude
Unknown
Longitude
Unknown
Altitude
Unknown
Speed
Unknown
Apparent Right ascension
Unknown
Apparent Declination
Unknown
Sunlit
N/A
Visualization observer readout
Local Sidereal Time
21:28:16
Azimuth
Unknown
Elevation
Unknown
Doppler factor
Unknown
Orbital elements
Apogee altitude
220.037 km
Perigee altitude
198.9 km
Semi-major axis
6,587.605 km
Eccentricity
0.0016
Inclination
42.9732°
RAAN
276.7778°
Arg. of periapsis
339.8321°
True anomaly
158.67503°
Mean anomaly
158.6081°
Eccentric anomaly
158.64158°
Mean motion
4.05931 °/min
Orbital period
88.69 mins
BSTAR
0.0058328
Loading maneuver chart data...
Computing Atmospheric mass density...

Documentation

Showing up to 5 results
|